This is the latest recevied weather packets stored in our database for station/object WX4ET. If no packets are shown the sender has not sent any weather packets the latest 1 day(s).
| Time | Temp. | Humidity | Pressure | Rain* | Wind** | Luminosity | Snow |
|---|---|---|---|---|---|---|---|
| 1778044726 | 15.56° C | 92% | 1006.1 hPa | 1.27 mm | 0 m/s | 0 W/m² | - |
| 1778044422 | 16.11° C | 91% | 1006.1 hPa | 1.27 mm | 0 m/s | 0 W/m² | - |
| 1778044120 | 16.67° C | 87% | 1006.6 hPa | 0 mm | 0 m/s | 0 W/m² | - |
| 1778043817 | 16.67° C | 85% | 1006.8 hPa | 0 mm | 0 m/s | 0 W/m² | - |
| 1778043514 | 16.67° C | 82% | 1006.8 hPa | 0 mm | 0 m/s | 0 W/m² | - |
| 1778043211 | 16.67° C | 81% | 1006.9 hPa | 0 mm | 0 m/s | 0 W/m² | - |
| 1778042907 | 16.67° C | 81% | 1006.7 hPa | 0 mm | 0 m/s | 0 W/m² | - |
| 1778042605 | 16.67° C | 82% | 1006.7 hPa | 0 mm | 0 m/s | 0 W/m² | - |
| 1778042302 | 16.67° C | 84% | 1006.9 hPa | 0 mm | 0 m/s | 0 W/m² | - |
| 1778042000 | 16.67° C | 83% | 1006.8 hPa | 0 mm | 0 m/s | 0 W/m² | - |
| 1778041698 | 16.67° C | 82% | 1006.7 hPa | 0 mm | 0 m/s | 0 W/m² | - |
| 1778041396 | 16.67° C | 83% | 1006.6 hPa | 0 mm | 0 m/s | 0 W/m² | - |
| 1778041095 | 16.67° C | 82% | 1006.6 hPa | 0 mm | 0 m/s | 0 W/m² | - |
| 1778040791 | 16.67° C | 82% | 1006.7 hPa | 0 mm | 0 m/s | 0 W/m² | - |
| 1778040489 | 16.67° C | 81% | 1006.3 hPa | 0 mm | 0 m/s | 0 W/m² | - |
| 1778040186 | 16.11° C | 81% | 1006.4 hPa | 0 mm | 0 m/s | 0 W/m² | - |
| 1778039882 | 16.67° C | 82% | 1006.3 hPa | 0 mm | 0 m/s | 0 W/m² | - |
| 1778039579 | 16.11° C | 81% | 1006.5 hPa | 0 mm | 0 m/s | 0 W/m² | - |
| 1778039276 | 16.11° C | 81% | 1006.4 hPa | 0 mm | 0 m/s | 0 W/m² | - |
| 1778038974 | 16.11° C | 82% | 1006.2 hPa | 0 mm | 0 m/s | 0 W/m² | - |
| 1778038670 | 16.11° C | 82% | 1006.5 hPa | 0 mm | 0 m/s | 0 W/m² | - |
| 1778038367 | 16.67° C | 81% | 1006.2 hPa | 0 mm | 0 m/s | 0 W/m² | - |
| 1778038064 | 16.67° C | 81% | 1006.3 hPa | 0 mm | 0 m/s | 0 W/m² | - |
| 1778037761 | 16.67° C | 81% | 1006.3 hPa | 0 mm | 0 m/s | 0 W/m² | - |
| 1778037458 | 16.67° C | 81% | 1006.2 hPa | 0 mm | 0 m/s | 0 W/m² | - |
* Rain latest hour (hover to see other rain measurements)
** Current wind speed in m/s (hover to see current wind gust speed)